Regional Weather Roundup
Issued by NWS Cleveland, OH

Home | Current Version | Previous Version | Text Only | Print | Product List | Glossary Off
Versions: 1 2 3 4 5 6 7 8 9 10 11 12 13 14 15 16 17 18 19 20 21 22 23 24 25 26 27 28 29 30 31 32 33 34 35 36 37 38 39 40 41 42 43 44 45 46 47 48 49 50

000
ASUS41 KCLE 270702
RWRCLE
OHIO REGIONAL WEATHER ROUNDUP
NATIONAL WEATHER SERVICE CLEVELAND, OH
300 AM EDT FRI MAR 27 2015

NOTE: "FAIR" INDICATES FEW OR NO CLOUDS BELOW 12,000 FEET WITH NO
SIGNIFICANT WEATHER AND/OR OBSTRUCTIONS TO VISIBILITY.

OHZ001>008-015>018-024>027-034-035-043-044-270800-
   NORTHWEST OHIO

CITY           SKY/WX    TMP DP  RH WIND       PRES   REMARKS
DEFIANCE       CLOUDY    34  20  56 NW9       29.97F WCI  27
FINDLAY        CLOUDY    34  22  61 NW9       29.95R WCI  27
TOLEDO EXPRESS CLOUDY    32  22  66 NW12      29.95S WCI  23
TOLEDO EXEC    CLOUDY    34  22  61 NW12      29.96R WCI  25
LIMA           PTCLDY    33  24  69 NW9       29.97R WCI  25
$$

OHZ009>014-019>023-028>033-038-089-270800-
   NORTHEAST OHIO

CITY           SKY/WX    TMP DP  RH WIND       PRES   REMARKS
CLE-HOPKINS    CLOUDY    34  27  75 NW9       29.93R WCI  27
CLE-LAKEFRONT  CLOUDY    33  29  85 W7        29.91R WCI  27
CUY CO. ARPT   NOT AVBL
LORAIN-ELYRIA  CLOUDY    34  27  75 NW13      29.93R WCI  25
ASHTABULA      CLOUDY    33  31  92 W5        29.88S FOG     WCI  29
AKRON-CANTON   CLOUDY    34  26  72 NW9       29.90R WCI  27
WOOSTER        CLOUDY    33  27  78 NW9       29.91R WCI  25
MANSFIELD      CLOUDY    32  26  78 W6        29.92R WCI  26
YOUNGSTOWN     CLOUDY    34  32  92 W3        29.86S FOG
$$

OHZ042-051>053-060>062-070>072-077>081-270800-
  SOUTHWEST OHIO

CITY           SKY/WX    TMP DP  RH WIND       PRES   REMARKS
CINC-COVINGTON PTCLDY    36  27  69 N12       29.95F
CINC-LUNKEN    CLEAR     36  27  69 N7        29.98F
HAMILTON       PTCLDY    36  24  62 N8        29.98F
DAYTON         CLOUDY    34  25  69 NW5       29.97F WCI  30
WRIGHT-PAT AFB CLOUDY    35  23  63 NW7       29.97F WCI  29
DAYTON GENERAL CLOUDY    35  23  61 N8        29.96F WCI  29
WILMINGTON     CLEAR     33  24  69 N12       29.94F WCI  24
$$

OHZ036-037-039>041-045>050-054>059-063>069-073>076-082>088-270800-
  CENTRAL AND SOUTHEAST OHIO

CITY           SKY/WX    TMP DP  RH WIND       PRES   REMARKS
COLUMBUS       PTCLDY    32  23  69 NW8       29.95R WCI  25
OSU AIRPORT    PTCLDY    29  23  78 NW6       29.95S WCI  23
BOLTON FIELD   NOT AVBL
RICKENBACK AFB NOT AVBL
NEWARK         CLOUDY    34  25  69 NW8       29.93S WCI  27
MARION         CLOUDY    33  23  66 NW8       29.95R WCI  26
LANCASTER      MOCLDY    34  25  69 NW7       29.94F WCI  28
ZANESVILLE     CLOUDY    35  27  72 NW12      29.91S WCI  27
NEW PHILLY     CLOUDY    38  27  64 NW10      29.91S
$$



USA.gov is the U.S. government's official web portal to all federal, state and local government web resources and services.